FW4758 Weather Reports


Display with metric or nautical units.
time (UTC)temp
F
wind
direction
speed
MPH
gust
MPH
rain 1hr
in
rain 24hr
in
rain mn
in
humidity
%
barometer
mb
20260505230012 84 333 8.0 15.0 0.00 0.00 0.00 50 1002.2
20260505224519 87 324 3.0 7.0 0.00 0.00 0.00 52 1002.0
20260505223014 87 299 4.0 7.0 0.00 0.00 0.00 50 1001.9
20260505221511 87 336 4.0 7.0 0.00 0.00 0.00 51 1001.9
20260505220010 88 291 3.0 6.0 0.00 0.00 0.00 51 1001.7
20260505214511 88 242 4.0 7.0 0.00 0.00 0.00 48 1001.9
20260505213007 89 276 3.0 8.0 0.00 0.00 0.00 50 1001.9
20260505211518 89 233 3.0 7.0 0.00 0.00 0.00 51 1002.0
20260505210006 88 236 5.0 13.0 0.00 0.00 0.00 50 1002.4
20260505204503 88 173 5.0 11.0 0.00 0.00 0.00 52 1002.6
20260505203001 87 196 4.0 11.0 0.00 0.00 0.00 55 1002.4
20260505201600 87 240 9.0 16.0 0.00 0.00 0.00 53 1002.9
20260505200058 87 146 6.0 13.0 0.00 0.00 0.00 59 1002.8
20260505194554 86 254 7.0 14.0 0.00 0.00 0.00 62 1003.0
20260505193052 85 200 9.0 14.0 0.00 0.00 0.00 63 1003.0
20260505191554 84 223 8.0 16.0 0.00 0.00 0.00 64 1003.0
20260505190047 83 205 9.0 16.0 0.00 0.00 0.00 65 1003.1
20260505184550 83 215 10.0 17.0 0.00 0.00 0.00 66 1003.4
20260505183047 82 217 10.0 16.0 0.00 0.00 0.00 69 1003.5
20260505181540 82 223 9.0 17.0 0.00 0.00 0.00 71 1003.6
20260505180039 81 216 12.0 19.0 0.00 0.00 0.00 71 1003.7
20260505174535 80 186 9.0 17.0 0.00 0.00 0.00 73 1003.7
20260505173031 79 192 8.0 17.0 0.00 0.00 0.00 76 1003.7
20260505171531 79 203 10.0 15.0 0.00 0.00 0.00 75 1003.9
20260505170035 78 184 10.0 17.0 0.00 0.00 0.00 77 1003.9
20260505164528 77 227 7.0 16.0 0.00 0.00 0.00 78 1003.8
20260505163027 77 360 11.0 22.0 0.00 0.00 0.00 78 1003.5
20260505161522 77 213 10.0 20.0 0.00 0.00 0.00 79 1003.5
20260505153017 75 205 10.0 22.0 0.00 0.00 0.00 81 1003.5
20260505151517 74 189 14.0 23.0 0.00 0.00 0.00 81 1003.5
20260505124509 69 209 8.0 15.0 0.00 0.00 0.00 84 1003.2
20260505123002 68 185 7.0 15.0 0.00 0.00 0.00 84 1003.1
20260505121502 68 211 7.0 13.0 0.00 0.00 0.00 84 1003.0
20260505120002 68 360 5.0 14.0 0.00 0.00 0.00 84 1002.6
20260505114501 68 188 8.0 15.0 0.00 0.00 0.00 84 1002.5
20260505113105 67 213 8.0 14.0 0.00 0.00 0.00 84 1002.6
20260505111600 67 360 7.0 14.0 0.00 0.00 0.00 83 1002.5
20260505101555 66 360 6.0 11.0 0.00 0.00 0.00 84 1002.4
20260505100050 67 360 6.0 13.0 0.00 0.00 0.00 84 1002.6
20260505094558 67 211 8.0 16.0 0.00 0.00 0.00 84 1002.6
20260505093053 67 201 6.0 14.0 0.00 0.00 0.00 84 1002.8
20260505091543 67 197 7.0 15.0 0.00 0.00 0.00 84 1002.8
20260505090043 67 360 9.0 20.0 0.00 0.00 0.00 84 1003.0
20260505084540 68 360 7.0 16.0 0.00 0.00 0.00 84 1003.1
20260505083045 68 360 10.0 17.0 0.00 0.00 0.00 84 1003.0
20260505081536 68 360 8.0 19.0 0.00 0.00 0.00 84 1002.9
20260505080041 69 170 12.0 19.0 0.00 0.00 0.00 84 1003.0
20260505074530 69 161 10.0 17.0 0.00 0.00 0.00 84 1003.4
20260505073027 69 360 7.0 12.0 0.00 0.00 0.00 83 1003.5
20260505071525 69 196 6.0 21.0 0.00 0.00 0.00 83 1003.7
20260505070026 70 360 8.0 15.0 0.00 0.00 0.00 83 1004.0
20260505064523 70 148 10.0 16.0 0.00 0.00 0.00 82 1004.1
20260505063020 70 157 8.0 19.0 0.00 0.00 0.00 82 1004.3
20260505061521 70 203 9.0 16.0 0.00 0.00 0.00 81 1004.3
20260505060015 71 182 12.0 23.0 0.00 0.00 0.00 80 1004.2
20260505054513 71 171 11.0 20.0 0.00 0.00 0.00 80 1004.1
20260505053014 71 195 11.0 25.0 0.00 0.00 0.00 79 1004.0
20260505051507 72 190 10.0 21.0 0.00 0.00 0.00 78 1004.2
20260505041502 73 167 10.0 19.0 0.00 0.00 0.00 76 1004.4
20260505040002 73 182 13.0 22.0 0.00 0.00 0.00 76 1004.5
20260505034501 73 360 11.0 22.0 0.00 0.00 0.00 76 1004.4
20260505033105 73 360 11.0 18.0 0.00 0.00 0.00 75 1004.3
20260505031559 74 133 9.0 18.0 0.00 0.00 0.00 75 1004.4
20260505030100 74 139 9.0 17.0 0.00 0.00 0.00 75 1004.6
20260505024559 73 144 8.0 14.0 0.00 0.00 0.00 75 1004.7
20260505023059 74 360 9.0 17.0 0.00 0.00 0.00 74 1004.5
20260505021602 74 360 10.0 20.0 0.00 0.00 0.00 74 1004.3
20260505020058 74 172 9.0 16.0 0.00 0.00 0.00 74 1004.3
20260505014559 74 169 9.0 13.0 0.00 0.00 0.00 74 1004.1
20260505013057 74 162 8.0 16.0 0.00 0.00 0.00 73 1004.3
20260505011609 74 179 6.0 15.0 0.00 0.00 0.00 72 1004.2
20260505010105 74 136 8.0 16.0 0.00 0.00 0.00 72 1004.1
20260505004554 75 148 8.0 15.0 0.00 0.00 0.00 72 1004.3
20260505003053 75 149 9.0 17.0 0.00 0.00 0.00 70 1004.4
20260505001554 76 162 8.0 16.0 0.00 0.00 0.00 70 1004.6
20260505000100 76 360 9.0 16.0 0.00 0.00 0.00 69 1004.7
20260504234602 76 200 10.0 17.0 0.00 0.00 0.00 68 1004.9
20260504233049 77 360 11.0 19.0 0.00 0.00 0.00 67 1004.9
20260504231550 78 154 9.0 17.0 0.00 0.00 0.00 67 1005.0